Weather History for KCMY - April, 2013

Change the Weather History Date:

Monday, April 15, 2013

  Actual Average Record
Temperature  
Mean Temperature 39 °F -  
Max Temperature 48 °F 57 °F 91 °F (2002)
Min Temperature 30 °F 36 °F 11 °F (2014)
Degree Days  
Heating Degree Days 26    
Moisture  
Dew Point 31 °F    
Average Humidity 73    
Maximum Humidity 100    
Minimum Humidity 46    
Precipitation  
Precipitation 0.05 in - - ()
Sea Level Pressure  
Sea Level Pressure 29.78 in    
Wind  
Wind Speed 6 mph (WSW)    
Max Wind Speed 20 mph    
Max Gust Speed 30 mph    
Visibility 7 miles    
Events Fog , Rain    
Averages and records for this station are not official NWS values.
T = Trace of Precipitation, MM = Missing Value Source: NWS Daily Summary

Daily Weather History Graph

Daily Weather History Graph

Search for Another Location

Airport or City:

Trip Planner

Search our weather history database for the weather conditions in past years. The results will help you decide how hot, cold, wet, or windy it might be!

Date:

Astronomy

Apr. 15, 2013 Rise Set
Actual Time 6:19 AM CDT 7:47 PM CDT
Civil Twilight 5:49 AM CDT 8:17 PM CDT
Nautical Twilight 5:13 AM CDT 8:53 PM CDT
Astronomical Twilight 4:34 AM CDT 9:32 PM CDT
Moon 9:39 AM CDT (4/15) 12:05 AM CDT (4/15)
Length of Visible Light 14h 28m
Length of Day
13h 27m
Waxing Crescent, 25% of the Moon is Illuminated
Apr 15
Waxing Crescent
Apr 18
First Quarter
Apr 25
Full
May 2
Last Quarter
May 9
New

Hourly Weather History & Observations

Time (CDT) Temp. Windchill Dew Point Humidity Pressure Visibility Wind Dir Wind Speed Gust Speed Precip Events Conditions
12:15 AM 37.4 °F 32.8 °F 37.4 °F 100% 29.61 in 3.0 mi East 5.8 mph - 0.04 in Rain Rain
12:35 AM 37.4 °F 33.8 °F 37.4 °F 100% 29.61 in 5.0 mi East 4.6 mph - 0.05 in Rain Light Rain
12:55 AM 37.4 °F - 37.4 °F 100% 29.62 in 7.0 mi Calm Calm - 0.05 in   Overcast
1:15 AM 37.4 °F - 37.4 °F 100% 29.60 in 4.0 mi Calm Calm - N/A   Overcast
1:35 AM 37.4 °F - 37.4 °F 100% 29.63 in 7.0 mi Calm Calm - N/A   Overcast
1:55 AM 35.6 °F 32.8 °F 35.6 °F 100% 29.63 in 5.0 mi East 3.5 mph - N/A   Overcast
2:15 AM 35.6 °F - 35.6 °F 100% 29.64 in 2.0 mi Calm Calm - N/A   Overcast
2:35 AM 35.6 °F - 35.6 °F 100% 29.66 in 2.0 mi Calm Calm - N/A   Overcast
2:55 AM 35.6 °F - 35.6 °F 100% 29.66 in 2.5 mi Calm Calm - N/A   Overcast
3:15 AM 35.6 °F - 35.6 °F 100% 29.66 in 2.0 mi Calm Calm - N/A   Overcast
3:35 AM 35.6 °F - 35.6 °F 100% 29.68 in 1.8 mi Calm Calm - N/A   Overcast
3:55 AM 33.8 °F - 33.8 °F 100% 29.67 in 0.2 mi Calm Calm - N/A Fog Fog
4:15 AM 32.0 °F 28.7 °F 32.0 °F 100% 29.67 in 0.2 mi SSE 3.5 mph - N/A Fog Fog
4:35 AM 32.0 °F - 32.0 °F 100% 29.67 in 0.2 mi Calm Calm - N/A Fog Fog
4:55 AM 32.0 °F - 32.0 °F 100% 29.67 in 0.2 mi Calm Calm - N/A Fog Fog
5:15 AM 32.0 °F - 32.0 °F 100% 29.67 in 0.5 mi Calm Calm - N/A Fog Fog
5:35 AM 32.0 °F - 32.0 °F 100% 29.66 in 0.2 mi Calm Calm - N/A Fog Fog
5:55 AM 32.0 °F - 32.0 °F 100% 29.66 in 0.2 mi Calm Calm - N/A Fog Light Freezing Fog
6:15 AM 30.2 °F - 30.2 °F 100% 29.65 in 0.5 mi Calm Calm - N/A Fog Light Freezing Fog
6:35 AM 30.2 °F - 30.2 °F 100% 29.65 in 0.8 mi Calm Calm - N/A   Mostly Cloudy
6:55 AM 32.0 °F 26.4 °F 32.0 °F 100% 29.67 in 0.2 mi WNW 5.8 mph - N/A Fog Light Freezing Fog
7:15 AM 32.0 °F 27.5 °F 32.0 °F 100% 29.68 in 0.2 mi West 4.6 mph - N/A Fog Fog
7:35 AM 32.0 °F 27.5 °F 32.0 °F 100% 29.69 in 0.2 mi South 4.6 mph - N/A Fog Fog
7:55 AM 33.8 °F 30.8 °F 33.8 °F 100% 29.70 in 0.8 mi SSW 3.5 mph - N/A   Overcast
8:35 AM 39.2 °F 35.0 °F 39.2 °F 100% 29.71 in 10.0 mi SW 5.8 mph - N/A   Unknown
8:55 AM 39.2 °F 35.9 °F 39.2 °F 100% 29.70 in 10.0 mi SW 4.6 mph - N/A   Scattered Clouds
9:15 AM 42.8 °F 38.6 °F 33.8 °F 70% 29.70 in 10.0 mi SW 6.9 mph - N/A   Clear
9:35 AM 42.8 °F 36.6 °F 32.0 °F 66% 29.70 in 10.0 mi WSW 11.5 mph 19.6 mph N/A   Clear
9:55 AM 44.6 °F 38.8 °F 32.0 °F 61% 29.71 in 10.0 mi WSW 11.5 mph 21.9 mph N/A   Scattered Clouds
10:15 AM 44.6 °F 38.4 °F 30.2 °F 57% 29.72 in 10.0 mi SW 12.7 mph 24.2 mph N/A   Clear
10:35 AM 46.4 °F 41.5 °F 30.2 °F 53% 29.73 in 10.0 mi SW 10.4 mph 21.9 mph N/A   Clear
10:55 AM 46.4 °F 39.8 °F 28.4 °F 50% 29.74 in 10.0 mi SW 16.1 mph 27.6 mph N/A   Scattered Clouds
11:15 AM 44.6 °F 38.8 °F 28.4 °F 53% 29.75 in 10.0 mi WSW 11.5 mph 23.0 mph N/A   Mostly Cloudy
11:35 AM 46.4 °F 40.4 °F 26.6 °F 46% 29.75 in 10.0 mi WSW 13.8 mph 28.8 mph N/A   Scattered Clouds
11:55 AM 48.2 °F - 28.4 °F 46% 29.78 in 10.0 mi WSW 15.0 mph 20.7 mph N/A   Clear
12:15 PM 46.4 °F 39.5 °F 26.6 °F 46% 29.78 in 10.0 mi West 17.3 mph 25.3 mph N/A   Clear
12:35 PM 46.4 °F 39.8 °F 26.6 °F 46% 29.79 in 10.0 mi SW 16.1 mph 25.3 mph N/A   Clear
12:55 PM 46.4 °F 41.5 °F 28.4 °F 50% 29.79 in 10.0 mi WSW 10.4 mph 23.0 mph N/A   Clear
1:15 PM 46.4 °F 41.1 °F 28.4 °F 50% 29.79 in 10.0 mi WSW 11.5 mph 21.9 mph N/A   Clear
1:35 PM 46.4 °F 40.4 °F 28.4 °F 50% 29.80 in 10.0 mi SW 13.8 mph 23.0 mph N/A   Clear
1:55 PM 48.2 °F - 30.2 °F 50% 29.80 in 10.0 mi SW 12.7 mph 20.7 mph N/A   Clear
2:15 PM 46.4 °F 41.9 °F 30.2 °F 53% 29.82 in 10.0 mi WSW 9.2 mph 24.2 mph N/A   Scattered Clouds
2:35 PM 48.2 °F - 28.4 °F 46% 29.82 in 10.0 mi West 15.0 mph 20.7 mph N/A   Scattered Clouds
2:55 PM 48.2 °F - 28.4 °F 46% 29.83 in 10.0 mi West 17.3 mph 25.3 mph N/A   Scattered Clouds
3:15 PM 48.2 °F - 28.4 °F 46% 29.83 in 10.0 mi West 19.6 mph 29.9 mph N/A   Scattered Clouds
3:35 PM 46.4 °F 39.0 °F 28.4 °F 50% 29.85 in 10.0 mi West 19.6 mph 26.5 mph N/A   Scattered Clouds
3:55 PM 46.4 °F 40.7 °F 28.4 °F 50% 29.85 in 10.0 mi WSW 12.7 mph 26.5 mph N/A   Scattered Clouds
4:15 PM 46.4 °F 40.1 °F 28.4 °F 50% 29.84 in 10.0 mi West 15.0 mph 21.9 mph N/A   Scattered Clouds
4:35 PM 46.4 °F 41.5 °F 28.4 °F 50% 29.85 in 10.0 mi WSW 10.4 mph 24.2 mph N/A   Scattered Clouds
4:55 PM 44.6 °F 37.4 °F 28.4 °F 53% 29.86 in 10.0 mi West 16.1 mph 23.0 mph N/A   Scattered Clouds
5:15 PM 44.6 °F 39.2 °F 28.4 °F 53% 29.86 in 10.0 mi WSW 10.4 mph 20.7 mph N/A   Scattered Clouds
5:35 PM 44.6 °F 37.8 °F 28.4 °F 53% 29.86 in 10.0 mi West 15.0 mph 20.7 mph N/A   Scattered Clouds
5:55 PM 44.6 °F 37.4 °F 28.4 °F 53% 29.86 in 10.0 mi West 16.1 mph 23.0 mph N/A   Scattered Clouds
6:15 PM 42.8 °F 36.2 °F 28.4 °F 57% 29.87 in 10.0 mi West 12.7 mph 18.4 mph N/A   Scattered Clouds
6:35 PM 44.6 °F 39.2 °F 28.4 °F 53% 29.88 in 10.0 mi West 10.4 mph 16.1 mph N/A   Clear
6:55 PM 42.8 °F 38.0 °F 28.4 °F 57% 29.89 in 10.0 mi West 8.1 mph 17.3 mph N/A   Clear
7:15 PM 42.8 °F 35.8 °F 28.4 °F 57% 29.89 in 10.0 mi West 13.8 mph 21.9 mph N/A   Scattered Clouds
7:35 PM 41.0 °F 35.2 °F 28.4 °F 61% 29.89 in 10.0 mi West 9.2 mph - N/A   Scattered Clouds
7:55 PM 41.0 °F 35.8 °F 28.4 °F 61% 29.89 in 10.0 mi West 8.1 mph - N/A   Clear
8:15 PM 41.0 °F 34.7 °F 28.4 °F 61% 29.90 in 10.0 mi West 10.4 mph - N/A   Clear
8:35 PM 39.2 °F 35.9 °F 28.4 °F 65% 29.91 in 10.0 mi West 4.6 mph - N/A   Scattered Clouds
8:55 PM 39.2 °F - 28.4 °F 65% 29.92 in 10.0 mi Calm Calm - N/A   Mostly Cloudy
9:15 PM 37.4 °F 32.8 °F 30.2 °F 75% 29.92 in 10.0 mi West 5.8 mph - N/A   Mostly Cloudy
9:35 PM 37.4 °F 34.9 °F 30.2 °F 75% 29.93 in 10.0 mi West 3.5 mph - N/A   Scattered Clouds
9:55 PM 37.4 °F 32.8 °F 30.2 °F 75% 29.95 in 10.0 mi West 5.8 mph - N/A   Mostly Cloudy
10:15 PM 37.4 °F 29.8 °F 28.4 °F 70% 29.96 in 10.0 mi West 11.5 mph 16.1 mph N/A   Scattered Clouds
10:35 PM 37.4 °F 30.8 °F 28.4 °F 70% 29.96 in 10.0 mi West 9.2 mph - N/A   Clear
10:55 PM 37.4 °F 30.8 °F 28.4 °F 70% 29.95 in 10.0 mi West 9.2 mph 16.1 mph N/A   Clear
11:15 PM 35.6 °F 30.7 °F 28.4 °F 75% 29.97 in 10.0 mi West 5.8 mph - N/A   Clear
11:35 PM 35.6 °F 31.7 °F 26.6 °F 70% 29.98 in 10.0 mi WSW 4.6 mph - N/A   Clear
11:55 PM 35.6 °F 29.9 °F 28.4 °F 75% 29.99 in 10.0 mi WSW 6.9 mph - N/A   Clear